Tracking 32136 objects as of 12-Nov-2025
HD Live streaming from Space Station
objects crossing your sky now

EUTELSAT 1-F4 (ECS 4)

Track EUTELSAT 1-F4 (ECS 4) now!
EUTELSAT 1-F4 (ECS 4) is classified as:


NORAD ID: 18351
Int'l Code: 1987-078B
Perigee: 36,213.2 km
Apogee: 36,273.7 km
Inclination: 14.0 °
Period: 1,459.1 minutes
Semi major axis: 42614 km
RCS: 3.9811 m2 (large)
Launch date: September 16, 1987
Source: European Telecommunications Satellite Organization (EUTE)
Launch site: FRENCH GUIANA (FRGUI)
Your satellite tracking list
Your tracking list is empty




NASA's NSSDC Master Catalog

Two Line Element Set (TLE):
1 18351U 87078B   25314.98008994 -.00000163  00000-0  00000-0 0  9991
2 18351  13.9853 343.6463 0007090  19.9782 154.9179  0.98688730124608
Source of the keplerian elements: AFSPC